This demonstration page uses our WeatherBlox Daily Observations layout. Learn more.

39.29038, -76.61219

Hourly Observations for August 6, 2019

Temp ( °F °C ) Dew Point ( °F °C ) Humidity (%) Winds ( mph kmh ) Pressure ( in mb ) Visibility ( mi km ) Precip ( " mm )
12:54 am 00:54 undefined 79 26.1 66 18.9 65 65 undefined N/A 29.91 1013 N/A 0 0
1:54 am 01:54 undefined 78 25.6 67 19.4 69 69 undefined N/A 29.88 1012 N/A 0 0
2:54 am 02:54 undefined 78 25.6 67 19.4 69 69 undefined N/A 29.88 1012 N/A 0 0
3:54 am 03:54 undefined 77 25 67 19.4 71 71 undefined N/A 29.88 1012 N/A 0 0
4:54 am 04:54 undefined 76 24.4 64 17.8 67 67 undefined N/A 29.88 1012 N/A 0 0
5:54 am 05:54 undefined 75 23.9 64 17.8 69 69 undefined N/A 29.88 1012 N/A 0 0
6:54 am 06:54 undefined 75 23.9 66 18.9 74 74 undefined N/A 29.88 1012 N/A 0 0
7:54 am 07:54 undefined 78 25.6 65 18.3 64 64 undefined N/A 29.88 1012 N/A 0 0
8:54 am 08:54 undefined 81 27.2 66 18.9 61 61 undefined N/A 29.88 1012 N/A 0 0
9:54 am 09:54 undefined 83 28.3 67 19.4 59 59 undefined N/A 29.88 1012 N/A 0 0
10:54 am 10:54 undefined 87 30.6 64 17.8 46 46 undefined N/A 29.88 1012 N/A 0 0
11:54 am 11:54 undefined 91 32.8 66 18.9 44 44 undefined N/A 29.88 1012 N/A 0 0
12:54 pm 12:54 undefined 91 32.8 68 20 47 47 undefined N/A 29.85 1011 N/A 0 0
1:54 pm 13:54 undefined 92 33.3 67 19.4 44 44 undefined N/A 29.83 1010 N/A 0 0
2:54 pm 14:54 undefined 91 32.8 67 19.4 45 45 undefined N/A 29.8 1009 N/A 0 0
3:54 pm 15:54 undefined 90 32.2 67 19.4 47 47 undefined N/A 29.8 1009 N/A 0 0
4:54 pm 16:54 undefined 88 31.1 69 20.6 54 54 undefined N/A 29.8 1009 N/A 0 0
5:54 pm 17:54 undefined 78 25.6 65 18.3 64 64 undefined N/A 29.74 1007 N/A 0.52 13.208
6:54 pm 18:54 undefined 71 21.7 67 19.4 87 87 undefined N/A 29.77 1008 N/A 1.19 30.226
7:54 pm 19:54 undefined 79 26.1 69 20.6 72 72 undefined N/A 29.83 1010 N/A 0.03 0.762
8:54 pm 20:54 undefined 77 25 70 21.1 79 79 undefined N/A 29.83 1010 N/A 0 0
9:54 pm 21:54 undefined 74 23.3 66 18.9 76 76 undefined N/A 29.83 1010 N/A 0 0
10:54 pm 22:54 undefined 73 22.8 67 19.4 81 81 undefined N/A 29.83 1010 N/A 0 0
11:54 pm 23:54 undefined 74 23.3 66 18.9 76 76 undefined N/A 29.83 1010 N/A 0 0

Powered by AerisWeather